GW7350 Weather Reports


time (UTC)temp
C
wind
direction
speed
KPH
gust
KPH
rain 1hr
cm
rain 24hr
cm
rain mn
cm
humidity
%
barometer
mb
20260906032000 22 307 0.0 0.0 0.00 0.15 0.00 99 981.7
20260906031500 22 313 0.0 0.0 0.00 0.15 0.00 99 981.4
20260906031000 22 314 0.0 0.0 0.00 0.15 0.00 99 981.4
20260906030000 23 292 0.0 0.0 0.00 0.15 0.00 99 981.4
20260906025500 23 353 0.0 0.0 0.00 0.15 0.00 99 981.4
20260906025000 22 327 0.0 0.0 0.00 0.15 0.00 99 981.4
20260906024500 23 328 0.0 0.0 0.00 0.15 0.00 99 981.4
20260906024000 23 350 0.0 0.0 0.00 0.15 0.00 99 981.7
20260906023500 23 285 0.0 0.0 0.00 0.15 0.00 99 981.7
20260906023000 23 285 0.0 0.0 0.00 0.15 0.00 99 981.4
20260906022500 23 234 1.6 3.2 0.00 0.15 0.00 99 981.4
20260906022000 23 165 0.0 0.0 0.00 0.15 0.00 99 981.4
20260906021502 23 191 1.6 1.6 0.00 0.15 0.00 99 981.0
20260906021000 23 203 0.0 0.0 0.00 0.15 0.00 99 981.0
20260906020000 23 253 1.6 1.6 0.00 0.15 0.00 99 980.7
20260906015500 22 326 0.0 0.0 0.00 0.15 0.00 99 981.0
20260906015000 22 326 0.0 0.0 0.00 0.15 0.00 99 980.7
20260906014500 23 337 1.6 1.6 0.00 0.15 0.00 99 980.7
20260906014000 23 313 0.0 0.0 0.00 0.15 0.00 99 980.7
20260906013500 23 314 0.0 0.0 0.00 0.15 0.00 99 981.0
20260906013000 23 313 0.0 0.0 0.00 0.15 0.00 99 981.0
20260906012500 23 313 0.0 0.0 0.00 0.15 0.00 99 981.0
20260906012000 23 313 0.0 0.0 0.00 0.15 0.00 99 980.7
20260906011500 23 313 0.0 0.0 0.00 0.15 0.00 99 980.7
20260906011000 23 313 0.0 0.0 0.00 0.15 0.00 98 980.7
20260906010500 23 313 0.0 0.0 0.00 0.15 0.00 98 980.7
20260906010000 23 313 0.0 0.0 0.00 0.15 0.00 98 980.7
20260906005000 23 296 0.0 0.0 0.00 0.15 0.00 98 980.7
20260906004500 23 315 1.6 1.6 0.00 0.15 0.00 97 980.7
20260906003000 23 205 0.0 0.0 0.00 0.15 0.00 97 980.4
20260906002500 24 205 0.0 0.0 0.00 0.15 0.00 96 980.4
20260906002000 24 205 0.0 0.0 0.00 0.15 0.00 96 980.4
20260906001500 24 205 0.0 0.0 0.00 0.15 0.00 96 980.4
20260906001000 24 205 0.0 0.0 0.00 0.15 0.00 95 980.0
20260906000500 24 205 0.0 0.0 0.00 0.15 0.00 95 980.4
20260906000000 24 205 0.0 0.0 0.00 0.15 0.00 94 980.4
20260905235500 25 205 0.0 0.0 0.00 0.15 0.00 93 980.0
20260905235000 25 205 0.0 0.0 0.00 0.15 0.00 93 980.0
20260905234500 25 205 0.0 0.0 0.00 0.15 0.00 92 980.4
20260905234000 25 205 0.0 0.0 0.00 0.15 0.00 93 980.0
20260905233000 25 206 0.0 0.0 0.00 0.15 0.00 92 980.0
20260905232000 25 12 0.0 0.0 0.00 0.15 0.00 93 980.0
20260905231500 25 219 0.0 0.0 0.00 0.15 0.00 92 980.0
20260905231000 25 196 0.0 1.6 0.00 0.15 0.00 92 979.7
20260905230500 26 236 0.0 0.0 0.00 0.15 0.00 90 980.0
20260905225500 26 206 0.0 0.0 0.00 0.15 0.00 87 979.7
20260905225000 26 198 1.6 1.6 0.00 0.15 0.00 86 980.0
20260905224500 26 331 1.6 1.6 0.00 0.15 0.00 85 979.7
20260905224000 26 304 3.2 4.8 0.00 0.15 0.00 85 980.0
20260905223500 27 350 0.0 1.6 0.00 0.15 0.00 86 979.7
20260905223000 27 351 0.0 1.6 0.00 0.15 0.00 85 979.7
20260905222500 27 1 3.2 4.8 0.00 0.15 0.00 84 979.7
20260905222000 27 351 0.0 0.0 0.00 0.15 0.00 86 979.7
20260905221000 26 312 0.0 1.6 0.00 0.15 0.00 88 979.7
20260905220500 26 329 0.0 0.0 0.00 0.15 0.00 87 980.0
20260905220000 26 336 1.6 1.6 0.00 0.15 0.00 88 980.0
20260905215500 26 284 0.0 1.6 0.00 0.15 0.00 89 980.4
20260905214000 26 307 0.0 0.0 0.00 0.15 0.00 91 980.4
20260905213500 26 308 0.0 0.0 0.00 0.15 0.00 89 980.7
20260905213000 26 233 0.0 0.0 0.00 0.15 0.00 91 980.4
20260905212500 25 233 0.0 0.0 0.00 0.15 0.00 92 980.4
20260905212000 25 234 0.0 0.0 0.00 0.15 0.00 93 980.4
20260905211500 25 234 0.0 0.0 0.00 0.15 0.00 92 980.7
20260905211000 25 234 0.0 0.0 0.00 0.15 0.00 92 980.7
20260905210500 25 233 0.0 0.0 0.00 0.15 0.00 93 980.7
20260905205500 25 29 0.0 0.0 0.00 0.15 0.00 93 980.7
20260905205000 25 332 0.0 1.6 0.00 0.15 0.00 94 980.7
20260905204500 24 314 0.0 0.0 0.00 0.15 0.00 95 980.7
20260905204000 24 337 0.0 0.0 0.00 0.15 0.00 97 981.0
20260905203500 23 130 0.0 0.0 0.00 0.15 0.00 96 981.4
20260905203000 23 51 0.0 0.0 0.00 0.15 0.00 97 981.4
20260905202500 23 52 0.0 0.0 0.00 0.15 0.00 96 981.7
20260905202000 23 46 0.0 0.0 0.00 0.15 0.00 96 981.7
20260905201500 23 358 0.0 0.0 0.00 0.15 0.00 97 981.7
20260905201000 23 293 0.0 0.0 0.00 0.15 0.00 99 981.7
20260905200000 23 267 0.0 0.0 0.00 0.15 0.00 98 981.4
20260905195500 23 7 0.0 0.0 0.00 0.15 0.00 99 981.4
20260905195000 23 186 1.6 1.6 0.00 0.15 0.00 99 981.0
20260905194500 23 3 0.0 0.0 0.00 0.15 0.00 99 980.7
20260905194000 23 291 3.2 4.8 0.00 0.15 0.00 99 981.0
20260905193500 23 86 1.6 1.6 0.00 0.15 0.00 98 980.4
20260905193000 23 100 1.6 1.6 0.13 0.15 0.00 97 980.7
20260905192500 23 304 0.0 1.6 0.30 0.15 0.00 97 980.4
20260905192000 23 216 1.6 1.6 0.18 0.13 0.00 95 981.0
20260905191500 23 311 3.2 4.8 0.30 0.10 0.00 94 981.0
20260905191000 23 12 6.4 9.7 0.61 0.10 0.00 92 981.4
20260905190000 25 352 6.4 9.7 0.00 0.00 0.00 81 981.4
20260905185500 27 28 3.2 3.2 0.00 0.00 0.00 78 981.7
20260905185000 31 310 16.1 24.1 0.00 0.00 0.00 70 981.7
20260905184500 32 19 4.8 4.8 0.00 0.00 0.00 66 981.4
20260905183500 32 2 0.0 1.6 0.00 0.00 0.00 62 981.0
20260905182000 32 353 0.0 0.0 0.00 0.00 0.00 66 980.4
20260905181500 32 353 0.0 0.0 0.00 0.00 0.00 65 980.4
20260905181000 32 353 0.0 0.0 0.00 0.00 0.00 64 981.0
20260905180500 32 349 0.0 0.0 0.00 0.00 0.00 64 980.7
20260905180000 32 343 0.0 0.0 0.00 0.00 0.00 66 980.7
20260905175500 32 293 0.0 1.6 0.00 0.00 0.00 63 981.0
20260905175000 33 59 0.0 1.6 0.00 0.00 0.00 64 981.0
20260905174500 33 201 3.2 4.8 0.00 0.00 0.00 60 981.0
20260905174000 33 231 0.0 1.6 0.00 0.00 0.00 64 981.0
20260905173500 33 252 0.0 1.6 0.00 0.00 0.00 60 981.4
20260905173000 35 121 0.0 1.6 0.00 0.00 0.00 60 981.0
20260905172500 35 289 3.2 3.2 0.00 0.00 0.00 57 981.4
20260905172000 35 297 0.0 0.0 0.00 0.00 0.00 61 981.4
20260905171000 33 192 1.6 1.6 0.00 0.00 0.00 61 981.4
20260905170500 32 205 0.0 1.6 0.00 0.00 0.00 65 981.7
20260905165500 33 277 1.6 1.6 0.00 0.00 0.00 59 982.1
20260905165000 34 103 1.6 1.6 0.00 0.00 0.00 59 981.7
20260905164500 35 66 0.0 0.0 0.00 0.00 0.00 61 982.1
20260905164000 34 131 0.0 0.0 0.00 0.00 0.00 60 981.7
20260905163500 34 5 1.6 1.6 0.00 0.00 0.00 60 982.1
20260905163000 34 164 3.2 3.2 0.00 0.00 0.00 59 982.1
20260905162500 34 64 0.0 0.0 0.00 0.00 0.00 64 982.1
20260905162000 33 279 1.6 1.6 0.00 0.00 0.00 62 982.1
20260905161500 33 354 0.0 0.0 0.00 0.00 0.00 63 982.1
20260905160500 33 134 0.0 0.0 0.00 0.00 0.00 65 982.4
20260905160000 33 216 0.0 1.6 0.00 0.00 0.00 69 982.4
20260905155500 33 14 0.0 0.0 0.00 0.00 0.00 71 982.4
20260905155000 32 191 0.0 1.6 0.00 0.00 0.00 71 982.1
20260905154500 32 348 0.0 0.0 0.00 0.00 0.00 73 982.4
20260905154000 31 340 1.6 1.6 0.00 0.00 0.00 72 982.4
20260905153500 31 98 0.0 0.0 0.00 0.00 0.00 77 982.4
20260905153000 31 97 0.0 1.6 0.00 0.00 0.00 78 982.7
20260905152000 31 297 0.0 1.6 0.00 0.00 0.00 75 982.4
20260905151500 30 326 1.6 3.2 0.00 0.00 0.00 77 982.7
20260905151000 30 354 1.6 3.2 0.00 0.00 0.00 79 982.7
20260905150500 30 350 0.0 0.0 0.00 0.00 0.00 80 982.7
20260905150000 30 353 0.0 1.6 0.00 0.00 0.00 79 982.4
20260905145500 30 353 0.0 0.0 0.00 0.00 0.00 79 982.4
20260905145000 30 281 0.0 0.0 0.00 0.00 0.00 79 982.4
20260905144000 29 10 0.0 0.0 0.00 0.00 0.00 80 982.4
20260905143500 29 11 0.0 0.0 0.00 0.00 0.00 79 982.7
20260905143000 28 323 0.0 0.0 0.00 0.00 0.00 79 982.7
20260905142000 28 356 0.0 0.0 0.00 0.00 0.00 83 982.4
20260905141000 28 258 0.0 0.0 0.00 0.00 0.00 83 982.7
20260905140500 27 256 0.0 1.6 0.00 0.00 0.00 82 982.4
20260905140000 27 6 0.0 0.0 0.00 0.00 0.00 84 982.7
20260905135000 27 0 1.6 1.6 0.00 0.00 0.00 82 982.7
20260905134500 27 20 0.0 0.0 0.00 0.00 0.00 84 983.1
20260905134000 27 250 0.0 1.6 0.00 0.00 0.00 86 983.1
20260905133000 26 11 0.0 0.0 0.00 0.00 0.00 87 983.1
20260905131500 26 0 0.0 1.6 0.00 0.00 0.00 90 983.1
20260905131000 26 1 0.0 0.0 0.00 0.00 0.00 90 983.1
20260905130500 25 284 0.0 0.0 0.00 0.00 0.00 91 983.1
20260905125000 25 342 0.0 0.0 0.00 0.00 0.00 92 983.1
20260905124500 25 357 0.0 1.6 0.00 0.00 0.00 94 983.1
20260905124000 24 299 0.0 0.0 0.00 0.00 0.00 96 983.1
20260905123500 23 217 0.0 0.0 0.00 0.00 0.00 99 983.1
20260905123000 23 217 0.0 0.0 0.00 0.00 0.00 99 983.1
20260905122500 23 217 0.0 0.0 0.00 0.00 0.00 99 982.7
20260905122000 23 217 0.0 0.0 0.00 0.00 0.00 99 982.7
20260905121500 23 217 0.0 0.0 0.00 0.00 0.00 99 982.7
20260905121000 23 218 0.0 0.0 0.00 0.00 0.00 99 983.1
20260905120500 23 217 0.0 0.0 0.00 0.00 0.00 99 982.7
20260905120000 23 217 0.0 0.0 0.00 0.00 0.00 99 982.7
20260905115500 23 217 0.0 0.0 0.00 0.00 0.00 99 982.4
20260905115000 22 217 0.0 0.0 0.00 0.00 0.00 99 982.4
20260905114500 22 217 0.0 0.0 0.00 0.00 0.00 99 982.4
20260905113500 22 217 0.0 0.0 0.00 0.00 0.00 99 982.4
20260905113000 22 217 0.0 0.0 0.00 0.00 0.00 99 982.4
20260905112500 22 216 0.0 0.0 0.00 0.00 0.00 99 982.1
20260905112000 22 216 0.0 0.0 0.00 0.00 0.00 99 982.4
20260905111500 22 217 0.0 0.0 0.00 0.00 0.00 99 982.4
20260905110500 22 217 0.0 0.0 0.00 0.00 0.00 99 982.1
20260905110000 22 217 0.0 0.0 0.00 0.00 0.00 99 982.1
20260905105500 22 217 0.0 0.0 0.00 0.00 0.00 99 982.1
20260905104500 22 217 0.0 0.0 0.00 0.00 0.00 99 981.7
20260905104000 22 217 0.0 0.0 0.00 0.00 0.00 99 981.7
20260905103500 23 217 0.0 0.0 0.00 0.00 0.00 99 981.7
20260905103000 23 217 0.0 0.0 0.00 0.00 0.00 99 981.7
20260905102500 23 216 0.0 0.0 0.00 0.00 0.00 99 981.7
20260905102000 22 216 0.0 0.0 0.00 0.00 0.00 99 981.4
20260905101000 22 217 0.0 0.0 0.00 0.00 0.00 99 981.7
20260905100500 23 217 0.0 0.0 0.00 0.00 0.00 99 981.4
20260905100000 22 216 0.0 0.0 0.00 0.00 0.00 99 981.4
20260905095500 23 217 0.0 1.6 0.00 0.00 0.00 99 981.4
20260905095000 23 220 1.6 1.6 0.00 0.00 0.00 99 981.4
20260905094500 23 287 0.0 0.0 0.00 0.00 0.00 99 981.4
20260905094000 23 287 0.0 0.0 0.00 0.00 0.00 99 981.7
20260905093500 23 287 0.0 0.0 0.00 0.00 0.00 99 981.7
20260905093000 23 287 0.0 0.0 0.00 0.00 0.00 99 981.7
20260905092500 23 287 0.0 0.0 0.00 0.00 0.00 99 981.7
20260905092000 23 287 0.0 0.0 0.00 0.00 0.00 99 981.7
20260905091500 23 287 0.0 0.0 0.00 0.00 0.00 99 981.7
20260905091000 23 287 0.0 0.0 0.00 0.00 0.00 99 981.7
20260905090500 23 287 0.0 0.0 0.00 0.00 0.00 99 981.7
20260905085000 23 287 0.0 0.0 0.00 0.00 0.00 98 982.1
20260905084500 23 287 0.0 0.0 0.00 0.00 0.00 98 981.7
20260905084000 23 287 0.0 0.0 0.00 0.00 0.00 98 981.7
20260905083500 23 287 0.0 0.0 0.00 0.00 0.00 98 981.7
20260905083000 23 287 0.0 0.0 0.00 0.00 0.00 98 982.1
20260905082500 23 287 0.0 0.0 0.00 0.00 0.00 98 982.1
20260905082000 23 287 0.0 0.0 0.00 0.00 0.00 97 982.1
20260905081500 23 286 0.0 0.0 0.00 0.00 0.00 98 982.1
20260905081000 23 286 0.0 0.0 0.00 0.00 0.00 98 982.1
20260905080500 23 287 0.0 0.0 0.00 0.00 0.00 97 982.1
20260905080000 23 287 0.0 0.0 0.00 0.00 0.00 97 982.4
20260905075500 23 287 0.0 0.0 0.00 0.00 0.00 97 982.4
20260905074000 23 287 0.0 0.0 0.00 0.00 0.00 96 982.4
20260905073500 23 286 0.0 0.0 0.00 0.00 0.00 96 982.4
20260905073000 23 287 0.0 0.0 0.00 0.00 0.00 96 982.4
20260905072500 23 287 0.0 0.0 0.00 0.00 0.00 96 982.4
20260905072000 23 287 0.0 0.0 0.00 0.00 0.00 96 982.4
20260905071500 23 286 0.0 0.0 0.00 0.00 0.00 96 982.7
20260905071012 23 286 0.0 0.0 0.00 0.00 0.00 96 982.7
20260905065500 23 281 1.6 1.6 0.00 0.00 0.00 96 982.7
20260905065000 23 194 0.0 0.0 0.00 0.00 0.00 96 982.7
20260905064500 23 194 0.0 0.0 0.00 0.00 0.00 95 982.7
20260905064000 24 195 0.0 0.0 0.00 0.00 0.00 95 982.7
20260905063500 24 193 0.0 0.0 0.00 0.00 0.00 95 982.7
20260905063000 24 193 0.0 0.0 0.00 0.00 0.00 95 983.1
20260905062500 24 193 0.0 1.6 0.00 0.00 0.00 94 982.7
20260905062000 24 193 0.0 1.6 0.00 0.00 0.00 94 983.1
20260905061500 24 193 0.0 0.0 0.00 0.00 0.00 94 982.7
20260905061000 24 193 0.0 0.0 0.00 0.00 0.00 93 983.1
20260905060500 24 193 0.0 0.0 0.00 0.00 0.00 93 983.1
20260905060000 24 193 0.0 0.0 0.00 0.00 0.00 93 983.1
20260905055500 24 193 0.0 0.0 0.00 0.00 0.00 92 983.1
20260905055000 24 193 0.0 0.0 0.00 0.00 0.00 92 983.1
20260905054000 25 192 0.0 0.0 0.00 0.00 0.00 92 983.1
20260905053500 25 192 0.0 0.0 0.00 0.00 0.00 92 983.1
20260905053000 25 191 0.0 0.0 0.00 0.00 0.00 91 983.1
20260905052500 25 192 0.0 0.0 0.00 0.00 0.00 91 983.1
20260905052000 25 192 0.0 0.0 0.00 0.00 0.00 91 983.1
20260905051500 25 192 0.0 0.0 0.00 0.00 0.00 91 983.4
20260905051000 25 191 0.0 0.0 0.00 0.00 0.00 92 983.1
20260905050500 25 191 0.0 0.0 0.00 0.00 0.00 92 983.1
20260905050000 25 191 0.0 0.0 0.00 0.00 0.00 92 983.1
20260905045500 25 191 0.0 0.0 0.00 0.00 0.00 92 983.4
20260905045000 25 191 0.0 0.0 0.00 0.00 0.00 91 983.1
20260905044000 25 191 0.0 0.0 0.00 0.00 0.00 91 983.4
20260905043500 25 191 0.0 0.0 0.00 0.00 0.00 91 983.4
20260905043000 26 191 0.0 0.0 0.00 0.00 0.00 92 983.1
20260905042500 25 191 0.0 0.0 0.00 0.00 0.00 91 983.4
20260905042000 25 191 0.0 0.0 0.00 0.00 0.00 91 983.1
20260905041500 26 191 0.0 0.0 0.00 0.00 0.00 91 983.1
20260905041000 26 191 0.0 0.0 0.00 0.00 0.00 91 983.1
20260905040500 26 191 0.0 0.0 0.00 0.00 0.00 91 983.1
20260905040000 26 191 0.0 0.0 0.00 0.00 0.00 92 983.1
20260905035500 25 191 0.0 0.0 0.00 0.00 0.00 92 983.1
20260905035000 25 191 0.0 0.0 0.00 0.00 0.00 92 983.1
20260905034500 25 191 0.0 0.0 0.00 0.00 0.00 92 983.1
20260905033500 26 191 0.0 0.0 0.00 0.00 0.00 92 983.1
20260905033000 26 191 0.0 0.0 0.00 0.00 0.00 92 983.1
20260905032500 26 191 0.0 0.0 0.00 0.00 0.00 91 983.1